Location: Cannifist
(18.2333°N, 63.0167°W)
Time: 21:22:16
(UTC+00:00)

Cosmos 1697 Rocket - Pass Details

Date: 27 February 2020
Orbit: 831 x 845 km, 71.0° (Epoch: 09 April)

Event Time Altitude Azimuth Distance (km) Brightness Sun altitude
Rises 23:22:31 0° 167° (SSE) 3,360 5.7 -16.2°
Reaches altitude 10° 23:25:25 10° 153° (SSE) 2,428 4.9 -16.9°
Enters shadow 23:28:12 21° 126° (SE) 1,794 4.0 -17.6°
